www.pogodaiklimat.ru

Погода и климат >> Архив погоды >> Канада >> Muskoka Awos


ПОГОДА в Muskoka Awos

  • Прогноз погоды в Muskoka Awos
  • Монитор погоды в Muskoka Awos
  • Климат города

АРХИВ ПОГОДЫ в Muskoka Awos

Время (UTC), дата Ветер
(напр.,м/с)
 
Видим.   Явления Облачность Т
(С)
Тd
(С)
f
(%)
Тe
(С)
Тes
(С)
Комфортность P
(гПа)
Po
(гПа)
Тmin
(С)
Tmax
(С)
R
(мм)
R24
(мм)
S
(см)
09 11.08 ЮВ 1 16 км 9/0
[]
+12.0 +11.9 99 +13 +13 1014.4 980.9
12 11.08 С 1 16 км слаб. дождь 10/0
[]
+14.6 +14.3 98 +16 +17 1015.2 981.6 +11.4 +26.2
15 11.08 З 2 16 км 9/0 2000 м
[]
+23.4 +15.2 60 +28 +35 душно 1015.8 982.3
18 11.08 ЮЗ 2 16 км 10/0 2000 м
[]
+25.2 +13.2 47 +27 +35 жарко 1015.7 982.2 +11.4 +26.1
21 11.08 ЮЗ 3 16 км ясно +26.4 +13.4 45 +28 +34 жарко 1015.0 981.5
00 12.08 З 2 16 км 9/9 1000 м
[]
+23.6 +16.0 62 +27 +27 жарко 1015.5 982.0 +11.4 +27.4
03 12.08 В 1 16 км 10/0
[]
+18.9 +17.1 89 +21 +21 комфорт 1017.0 983.6
06 12.08 В 1 16 км ясно +16.0 +15.9 99 +17 +17 1017.9 984.4 +11.4 +27.4 21
09 12.08 С 1 12 км ясно +14.2 +14.1 99 +15 +15 1018.5 985.0
12 12.08 С 1 16 км ясно +16.7 +16.5 99 +18 +21 1019.9 986.3 +13.2 +27.4
15 12.08 В 2 16 км ясно +24.9 +15.9 57 +28 +41 жарко 1020.9 987.4
18 12.08 ЮЗ 2 16 км 9/9 1000 м
[]
+27.9 +16.2 49 +31 +33 душно 1020.2 986.7 +13.2 +28.2
21 12.08 СВ 1 16 км 3/3 1500 м
[]
+26.4 +15.8 52 +30 +35 душно 1019.5 985.9
00 13.08 СЗ 1 16 км ясно +23.4 +17.8 71 +29 +29 душно 1019.5 985.9 +13.2 +29.0
03 13.08 С 1 16 км 9/9 1500 м
[]
+18.5 +17.2 92 +21 +21 комфорт 1020.3 986.8
06 13.08 ЮВ 1 16 км ясно +16.1 +16.0 99 +17 +17 1020.6 987.1 +13.2 +29.0
09 13.08 СЗ 1 16 км ясно +14.4 +14.3 99 +15 +15 1019.8 986.2
12 13.08 В 1 16 км ясно +18.1 +16.4 90 +20 +22 1020.3 986.7 +13.4 +29.0
15 13.08 СВ 2 16 км ясно +26.8 +14.9 48 +29 +42 жарко 1019.8 986.4
18 13.08 СЗ 4 16 км ясно +29.1 +14.3 40 +31 +43 жарко 1017.9 984.5 +13.4 +29.4
21 13.08 ЮЗ 1 16 км ясно +29.5 +13.6 38 +31 +39 жарко 1015.8 982.5
00 14.08 СЗ 4 16 км ясно +25.5 +17.3 60 +29 +29 душно 1015.2 981.9 +13.4 +30.2
03 14.08 СЗ 1 16 км ясно +18.6 +17.0 90 +21 +21 комфорт 1015.4 982.1
06 14.08 СЗ 1 16 км ясно +17.0 +15.7 92 +18 +18 1014.5 981.3 +13.4 +30.2
09 14.08 С 1 16 км ясно +15.5 +15.0 97 +16 +16 1014.0 980.7
12 14.08 С 2 16 км ясно +17.3 +15.9 91 +18 +20 1013.9 980.6 +14.3 +30.2
15 14.08 З 3 16 км ясно +25.4 +15.9 56 +29 +38 душно 1013.1 979.8
18 14.08 З 3 16 км ясно +27.9 +17.4 53 +32 +45 душно 1012.1 978.9 +14.3 +28.2
21 14.08 З 4 16 км ясно +28.1 +15.7 47 +31 +36 душно 1011.0 977.8
00 15.08 З 2 16 км ясно +24.6 +17.2 63 +28 +28 душно 1011.0 977.8 +14.3 +28.9
03 15.08 З 2 16 км ясно +21.6 +18.3 82 +26 +26 душно 1011.5 978.4
06 15.08 З 2 16 км ясно +21.3 +18.9 86 +26 +26 душно 1010.8 977.8 +14.3 +28.9
09 15.08 З 2 16 км ясно +20.7 +19.6 93 +26 +26 душно 1011.1 978.0
12 15.08 З 2 14 км 10/10 100 м
[]
+21.9 +21.1 95 +28 +28 душно 1012.4 979.2 +19.0 +28.9
15 15.08 З 3 16 км 5/5 600 м
[]
+25.2 +20.6 76 +31 +36 очень
душно
1013.5 980.3
18 15.08 З 4 16 км 9/9 1000 м
[]
+25.6 +20.1 72 +32 +33 очень
душно
1013.6 980.4 +19.0 +26.9
21 15.08 З 5 16 км ясно +26.9 +19.1 62 +32 +36 очень
душно
1013.2 980.0
00 16.08 З 2 16 км ясно +23.9 +18.0 70 +28 +28 душно 1013.8 980.6 +19.0 +27.4
03 16.08 С 1 16 км ясно +20.2 +18.2 88 +25 +25 комфорт 1015.3 982.0
06 16.08 ЮВ 1 16 км 10/10 1000 м
[]
+19.0 +17.9 93 +22 +22 комфорт 1016.0 982.7 +18.9 +27.4 21
09 16.08 В 1 16 км 10/10 600 м
[]
+18.7 +17.5 93 +21 +21 комфорт 1016.5 983.2
12 16.08 В 2 16 км 9/9 1000 м
[]
+19.6 +17.5 88 +23 +23 комфорт 1017.5 984.1 +17.4 +27.4
15 16.08 ЮВ 3 16 км 10/10 1000 м
[]
+23.9 +18.9 74 +29 +29 душно 1017.9 984.5
18 16.08 СВ 2 16 км 10/10 1000 м
[]
+27.0 +20.3 67 +33 +33 очень
душно
1016.8 983.5 +17.4 +28.6
21 16.08 ЮЗ 2 16 км 9/9 1000 м
[]
+30.3 +18.1 48 +35 +36 очень
душно
1015.4 982.2
00 17.08 Ю 4 16 км 3/3 1500 м
[]
+26.1 +20.1 70 +32 +32 очень
душно
1015.5 982.2 +17.4 +30.7
03 17.08 Ю 3 16 км 5/5 1000 м
[]
+22.7 +20.1 85 +29 +29 очень
душно
1016.0 982.7
06 17.08 ЮВ 1 2000 м дождь 10/10 100 м
[]
+21.5 +21.3 99 +27 +27 душно 1015.2 982.0 +17.4 +30.7 3
09 17.08 ЮВ 3 4800 м дымка {осадки} 10/10 100 м
[]
+21.0 +20.8 99 +27 +27 душно 1013.1 980.0
12 17.08 Ю 3 16 км слаб. дождь {осадки} 10/10 100 м
[]
+18.8 +18.5 98 +20 +20 1013.4 980.2 +18.4 +30.7 30
15 17.08 С 2 16 км {осадки} 10/10 300 м
[]
+21.1 +20.0 93 +26 +26 душно 1012.8 979.6
18 17.08 С 1 16 км {осадки} 9/9 300 м
[]
+24.9 +21.2 80 +31 +33 очень
душно
1011.9 978.8 +18.4 +24.9 2
21 17.08 С 2 16 км 3/3 1000 м
[]
+26.0 +19.9 69 +32 +36 очень
душно
1011.4 978.3
00 18.08 В 1 16 км 9/0
[]
+22.0 +21.0 94 +28 +28 душно 1012.5 979.2 +18.4 +27.3
03 18.08 СВ 1 16 км 9/0
[]
+19.9 +19.7 99 +25 +25 комфорт 1013.7 980.3

 

Местоположение метеостанции Muskoka Awos (Канада): широта 44.97 долгота -79.30 высота над уровнем моря 282 м.

В архиве по умолчанию представлена погода в Muskoka Awos за последнюю неделю. Архивные данные за месяц целиком и за предыдущие месяцы, начиная с января 2011 года, Вы можете получить, выбрав интересующий диапазон дат из раскрывающегося списка и нажав кнопку "Ввод!".


*Определитесь, кто Вы:
робот инопланетянин человек

Внимание! Время в таблицах - всемирное. Для получения местного времени необходимо прибавить поправку, которая в Muskoka Awos равна -5 ч.

Смотрите также архив погоды в соседних городах и на ближайших метеорологических станциях:

Погода в Beatrice Climate (Канада) (15 км)
Погода в Beausoleil Isl (aut) (Канада) (46 км)
Погода в Lagoon City (Канада) (49 км)
Погода в Barrie-oro (Канада) (59 км)
Погода в Parry Sound (Канада) (70 км)
Погода в Barrie (Канада) (76 км)
Погода в Wester Island (Канада) (84 км)
Погода в Collingwood (Канада) (89 км)
Погода в Egbert (Канада) (91 км)
Погода в Borden (Канада) (94 км)

Пояснения к столбцам:

Ветер - указаны скорость ветра в м/с - средняя за 10 мин, порывы в срок и между сроками (в фигурных скобках) и направление, откуда дует ветер: С - северный, СВ - северо-восточный, В - восточный, ЮВ - юго-восточный, Ю - южный, ЮЗ - юго-западный, З - западный, СЗ - северо-западный.
Видимость - горизонтальная дальность видимости в метрах или километрах. При видимости от 1 до 10 км при отсутствии осадков обычно наблюдается дымка, при ухудшении видимости до 1 км и менее - туман. В сухую погоду видимость может ухудшаться дымом, пылью или мглою.
Явления - указаны атмосферные явления, наблюдавшиеся в срок или в последний час перед сроком; фигурными скобками обозначены явления, наблюдавшиеся между сроками (за 1-3 часа до срока); квадратными скобками обозначены град или гололедные отложения с указанием их диаметра в мм.
Облачность - указаны через наклонную черту общая и нижняя облачность в баллах и высота нижней границы облаков в метрах; квадратными скобками обозначены формы облаков: Ci - перистые, Cs - перисто-слоистые, Cc - перисто-кучевые, Ac - высококучевые, As - высокослоистые, Sc - слоисто-кучевые, Ns - слоисто-дождевые, Cu - кучевые, Cb - кучево-дождевые. Подробнее классификацию облаков см. в Атласе облаков (PDF).
T - Температура воздуха - температура, измеренная на высоте 2 м над землей.
Td - Температура точки росы - температура, при понижении до которой содержащийся в воздухе водяной пар достигнет насыщения.
f - Относительная влажность воздуха - влажноcть воздуха, измеренная на высоте 2 м над землей.
Te - Эффективная температура - температура, которую ощущает одетый по сезону человек в тени. Характеристика душности погоды. При расчете учитывается влияние влажности воздуха и скорости ветра на теплоощущения человека.
Tes - Эффективная температура на солнце - температура, которую ощущает человек, с поправкой на солнечный нагрев. Характеристика знойности погоды. Зависит от высоты солнца над горизонтом, облачности и скорости ветра. Ночью, в пасмурную погоду, а также при ветре 12 м/с и более поправка равна нулю.
P - Атмосферное давление - приведенное к уровню моря атмосферное давление.
Po - Атмосферное давление - измеренное на уровне метеостанции атмосферное давление.
Tmin - Минимальная температура - минимум температуры воздуха на высоте 2 м над землей.
Tmax - Максимальная температура - максимум температуры воздуха на высоте 2 м над землей.
R - Количество осадков - Количество выпавших осадков за период времени, мм. При наведении курсора мыши на число - период времени, за который выпало указанное количество осадков.
R24 - Количество осадков - Количество выпавших осадков за 24 часа, мм.
S - Снежный покров - Высота снежного покрова, см. При наведении курсора мыши на число - состояние снежного покрова и степень покрытия местности в баллах.